Skip Page Navigation
NASA JPL Caltech
NASA Logo - Jet Propulsion Laboratory + View the NASA Portal
+ Center for Near-Earth Object Studies
JPL Home Earth Solar System Stars & Galaxies Technology
JPL Solar System Dynamics
BODIES ORBITS EPHEMERIDES TOOLS PHYSICAL DATA DISCOVERY FAQ SITE MAP
JPL Small-Body Database Browser
Search: [ help ]  
11916 Wiesloch (1992 ST17)
Classification: Main-belt Asteroid          SPK-ID: 2011916
Ephemeris | Orbit Diagram | Orbital Elements | Mission Design | Physical Parameters | Discovery Circumstances | Close-Approach Data ]

[ show orbit diagram ]
Orbital Elements at Epoch 2459000.5 (2020-May-31.0) TDB
Reference: JPL 27 (heliocentric ecliptic J2000)
 Element Value Uncertainty (1-sigma)   Units 
e .06421052269369987 2.7452e-08  
a 2.368480015934892 7.5105e-09 au
q 2.21639867612213 6.301e-08 au
i 6.235831780887233 3.7441e-06 deg
node 178.4956546536129 2.9604e-05 deg
peri 300.0288833988352 4.4634e-05 deg
M 104.0897436369247 3.3023e-05 deg
tp 2458615.546340894680
(2019-May-12.04634089)
0.00012187 TDB
period 1331.383020418492
3.65
6.3328e-06
1.734e-08
d
yr
n .2703955169015463 1.2861e-09 deg/d
Q 2.520561355747654 7.9928e-09 au
  Orbit Determination Parameters
   # obs. used (total)      2075  
   data-arc span      10176 days (27.86 yr)  
   first obs. used      1992-09-21  
   last obs. used      2020-08-01  
   planetary ephem.      DE431  
   SB-pert. ephem.      SB431-N16  
   condition code      0  
   norm. resid. RMS      .50215  
   source      ORB  
   producer      Otto Matic  
   solution date      2020-Aug-25 00:28:51  

Additional Information
 Earth MOID = 1.23949 au 
 Jupiter MOID = 2.51747 au 
 T_jup = 3.536 
[ show covariance matrix ]

Ephemeris | Orbit Diagram | Orbital Elements | Mission Design | Physical Parameters | Discovery Circumstances | Close-Approach Data ]

Physical Parameter Table
Parameter Symbol Value Units Sigma Reference Notes
absolute magnitude H 14.2   n/a MPO358745  
diameter diameter 4.397 km 0.325 urn:nasa:pds:neowise_diameters_albedos::2.0[mainbelt] (http://adsabs.harvard.edu/abs/2011ApJ...741...68M)  
geometric albedo albedo 0.159   0.031 urn:nasa:pds:neowise_diameters_albedos::2.0[mainbelt] (http://adsabs.harvard.edu/abs/2011ApJ...741...68M)  

11916 Wiesloch           Discovered 1992 Sept. 24 by L. D. Schmadel and F. Borngen at Tautenburg.
The city of Wiesloch celebrates the 1200th anniversary of its first documented mention in mid-2001. Situated some 16 km south of the famous Heidelberg-Königstuhl Observatory, it became the home town of the first discoverer more than 30 years ago.
NOTE: some special characters may not display properly (any characters within {} are an attempt to place the proper accent above a character)
Reference: 20010804/MPCPages.arcLast Updated: 2009-05-11

[ show close-approach data ]
Alternate Designations
 1992 ST17 = 1998 HG56 
Ephemeris | Orbit Diagram | Orbital Elements | Mission Design | Physical Parameters | Discovery Circumstances | Close-Approach Data ]
ABOUT SSD CREDITS/AWARDS PRIVACY/COPYRIGHT GLOSSARY LINKS
FirstGov 2020-Oct-23 11:29 UT
(server date/time)  
NASA Home Page
Site Manager:   Ryan S. Park
Webmaster  Alan B. Chamberlin